Location: Asbacherhof
(48.8543°N, 10.7903°E)
Time: 07:41:45
(UTC+00:00)

Daily predictions for brighter satellites

Satellite Brightness Start Highest point End
(mag) Time Altitude Azimuth Time Altitude Azimuth Time Altitude Azimuth
ATLAS 2AS CENTAUR R/B 3.3 16:20:47 10° SW 16:28:45 74° NW 16:36:34 10° NE
Cosmos 1634 Rocket 4.0 16:25:09 10° N 16:31:24 72° E 16:37:40 10° SSE
PSLV R/B 4.5 16:27:49 10° S 16:31:26 57° W 16:35:09 10° NNW
Cosmos 1844 Rocket 4.2 16:30:21 10° SE 16:33:38 16° E 16:36:57 10° ENE
Cosmos 1025 Rocket 3.9 16:30:13 10° SSW 16:34:26 52° WNW 16:38:44 10° N
CZ-2C R/B 3.9 16:30:43 10° ESE 16:35:23 32° ENE 16:40:17 10° N
H-2A R/B 2.5 16:33:09 10° SSE 16:37:11 84° WSW 16:41:24 10° NNW
Okean-O 4.0 16:34:18 10° ESE 16:37:22 19° ENE 16:40:27 10° NNE
H-2A R/B 3.2 16:34:51 10° ESE 16:38:27 20° ENE 16:42:09 10° NNE
CZ-4B R/B 2.7 16:36:34 10° NE 16:39:14 21° E 16:41:50 10° SE
Okean O Rocket 1.6 16:35:36 10° SSE 16:40:02 72° ENE 16:44:28 10° N
Cosmos 773 Rocket 3.9 16:36:07 10° NNW 16:41:16 65° ENE 16:46:22 10° SSE
SeaSat 1 3.9 16:36:51 10° NNE 16:41:18 34° NW 16:45:43 10° WSW
YAOGAN 6 4.1 16:38:34 10° S 16:41:56 41° W 16:45:23 10° NNW
SMAP 3.2 16:37:23 10° SSE 16:42:03 84° WSW 16:46:45 10° NNW
Cosmos 1626 2.1 16:39:06 10° S 16:42:48 88° E 16:46:32 10° N
CZ-4B R/B 3.3 16:38:33 10° SSE 16:44:05 90° SSE 16:49:47 10° NNW
SL-24 R/B 4.2 16:40:17 10° SSE 16:44:38 88° ENE 16:49:19 10° NNW
Aureole 2 Rocket 4.2 16:46:18 10° ESE 16:47:27 12° E 16:48:02 11° E
AQUARIUS 4.3 16:44:29 10° SSE 16:48:59 82° WSW 16:53:31 10° NNW
Cosmos 1603 4.2 16:44:42 10° NNW 16:50:22 67° WSW 16:56:03 10° SSE
Cosmos 2297 Rocket 4.2 16:46:08 10° W 16:50:23 21° NW 16:54:38 10° N
Meteor 2-10 Rocket 4.0 16:45:43 10° N 16:51:00 42° ENE 16:56:03 10° SE
OPS 8737 4.4 16:52:57 10° NW 16:56:01 62° NE 16:59:56 10° SE
Cosmos 1606 Rocket 3.5 16:51:55 10° N 16:56:19 74° E 17:00:43 10° SSE
CZ-2D R/B 3.7 16:53:12 10° SE 16:56:48 39° ENE 17:00:24 10° N
H-2A R/B 2.1 16:53:22 10° NNE 16:57:52 87° ESE 17:02:15 10° SSW
USA 234 3.8 16:52:59 11° ENE 16:58:49 44° N 17:04:58 10° WNW
YAOGAN 1 3.5 16:55:56 10° ESE 16:59:32 26° ENE 17:03:09 10° N
Cosmos 1892 Rocket 3.9 16:55:47 10° SSE 16:59:51 41° E 17:03:56 10° NNE
FengYun 1-2 T 4.4 16:56:06 10° SSE 17:01:40 80° WSW 17:07:19 10° NNW
ATLAS 5 CENTAUR R/B 1.5 16:57:38 10° SW 17:01:41 80° NW 17:06:05 11° NE
CZ-4C R/B 4.0 16:58:43 10° N 17:01:45 43° WNW 17:04:45 10° SW
SL-14 R/B 3.6 17:01:27 10° SSW 17:05:18 69° WNW 17:09:14 10° N
Helios 1A Rocket 4.0 17:02:04 10° ESE 17:05:24 24° ENE 17:08:45 10° N
RESURS DK-1 3.4 17:03:09 10° SW 17:07:07 45° NW 17:11:08 10° NNE
MOS 1 Rocket 3.7 17:03:16 10° NNE 17:07:14 33° E 17:11:07 10° SSE
ATLAS 3B R/B 4.2 17:01:46 10° NW 17:08:15 43° WSW 17:14:58 10° S
Cosmos 2228 3.2 17:04:02 10° NNW 17:08:18 76° W 17:12:34 10° S
SKYMED 2 3.7 17:08:59 10° NNE 17:13:14 50° E 17:17:27 10° S
Cosmos 2180 Rocket 4.5 17:07:14 10° N 17:13:40 75° E 17:20:03 10° SSE
Meteor 2-5 Rocket 3.9 17:08:43 10° SSW 17:14:16 73° WNW 17:19:49 10° N
Cosmos 1538 Rocket 3.9 17:09:47 10° NNW 17:14:59 72° ENE 17:20:08 10° SSE
Aureole 3 3.8 17:11:58 10° N 17:15:10 28° ENE 17:17:57 10° SE
CZ-4C R/B 3.3 17:10:28 10° W 17:15:25 39° NNW 17:21:18 10° NE
CZ-3B R/B 1.8 17:14:37 10° NW 17:16:51 48° NNE 17:20:09 17° E
SJ 16-02 2.3 17:13:27 10° SSE 17:17:10 27° E 17:18:57 21° ENE
Nadezhda 4 Rocket 4.2 17:12:41 10° SSE 17:18:34 45° E 17:24:25 10° NNE
Cosmos 1777 Rocket 4.0 17:15:11 10° SSW 17:20:24 70° ESE 17:25:41 10° NNE
Cosmos 2263 Rocket 2.7 17:16:51 10° SW 17:22:27 59° WNW 17:28:04 10° NNE
Cosmos 1455 2.5 17:22:11 10° N 17:25:48 41° ENE 17:29:26 10° SSE
Cosmos 2058 Rocket 3.0 17:23:15 10° N 17:27:46 78° E 17:32:17 10° SSE
Cosmos 1300 4.4 17:26:25 10° NNW 17:29:56 35° W 17:33:25 10° SSW
COSMOS 2406 4.3 17:26:52 10° N 17:31:32 24° NE 17:32:43 22° ENE
X-37B 2.6 17:30:33 10° SSW 17:32:44 17° SSE 17:33:14 17° SE
Meteor 2-13 Rocket 4.5 17:31:01 10° S 17:36:59 58° E 17:43:00 10° NNE
ARGOS 3.4 17:32:47 10° SE 17:37:49 44° ENE 17:42:55 10° N
Okean 1-7 Rocket 3.5 17:36:49 10° S 17:41:21 73° E 17:45:56 10° NNE
Lacrosse 5 1.8 17:36:30 10° NW 17:41:35 87° NNE 17:44:59 21° SE
CREW DRAGON DEMO-1 DEB 2.5 17:38:45 10° WNW 17:41:40 72° NNE 17:41:52 67° NE
NOSS 3-1 (C) 4.2 17:34:50 10° NW 17:41:48 52° NE 17:47:11 22° ESE
ERS-2 2.0 17:42:03 26° NNE 17:43:55 64° ESE 17:47:31 10° S
ISS -2.7 17:41:56 10° SSW 17:44:56 30° SE 17:45:00 30° SE
Cosmos 1939 Rocket 4.3 17:41:09 10° S 17:45:04 42° W 17:48:59 10° NNW
CZ-2C R/B 3.5 17:45:50 28° E 17:45:50 28° E 17:50:18 10° SSE
PSLV R/B 4.0 17:43:31 20° NNE 17:46:16 58° ESE 17:50:25 10° S
CSL-04 Debris 4.2 17:42:40 10° SE 17:47:54 54° ENE 17:53:09 10° N
COSMOS 2455 2.8 17:43:46 10° SSW 17:49:48 86° ESE 17:54:02 21° NE
Cosmos 1626 Rocket 3.6 17:48:21 10° S 17:52:35 51° E 17:54:01 35° NE
Cosmos 1844 3.8 17:49:17 10° S 17:54:43 53° ESE 17:57:10 31° NE
Cosmos 1833 Rocket 3.6 17:49:57 10° NNW 17:54:41 28° NE 17:54:41 28° NE
Cosmos 2026 Rocket 4.3 17:50:01 10° SSE 17:55:40 41° E 18:01:24 10° NNE
IRS-1C Rocket 4.5 17:50:35 10° S 17:55:48 66° WSW 18:01:04 10° NNW
Cosmos 2082 Rocket 3.7 17:52:20 10° N 17:55:56 20° NNE 17:55:56 20° NNE
USA 281 4.4 17:56:41 21° NE 17:56:49 21° NE 18:01:28 10° N
CZ-4 R/B 1.5 17:53:10 10° S 17:57:16 76° WSW 18:01:20 10° NNW
USA 229 DEB 4.1 17:51:49 10° NW 17:58:45 49° NE 18:01:49 33° E
USA 229 4.1 17:51:55 10° NW 17:58:50 48° NE 18:01:52 33° E
COSMO-SKYMED 1 3.3 17:57:05 10° N 18:01:21 54° WNW 18:05:35 10° SSW
DMSP B5D1-3 4.4 18:01:31 24° NNE 18:04:30 60° ESE 18:09:32 10° S
SL-08 RB Rocket 4.0 18:05:15 46° NE 18:05:15 46° NE 18:09:02 10° N
USA 267 4.0 18:04:13 29° ESE 18:05:05 30° SE 18:10:41 10° S
CZ-4B R/B 3.4 18:08:31 10° N 18:11:27 27° WNW 18:14:20 10° SW
Okean-O 3.1 18:09:03 10° S 18:13:25 60° WSW 18:17:51 10° NNW
NOSS 3-1 (A) 4.2 18:07:22 10° NW 18:14:21 52° NE 18:16:57 39° E
CZ-2C R/B 4.2 18:10:00 10° S 18:15:03 46° W 18:20:25 10° NNW
Cosmos 923 Rocket 4.1 18:11:18 10° NNW 18:16:41 79° WSW 18:21:59 10° SSE
Cosmos 1844 Rocket 2.6 18:11:03 10° SSW 18:16:44 90° WNW 18:19:24 33° NNE
H-2A R/B 2.3 18:12:25 10° S 18:17:22 68° WSW 18:22:30 10° NNW
Cosmos 1689 Rocket 4.3 18:20:00 21° SW 18:20:00 21° SW 18:21:07 10° SSW
Meteor 1-21 Rocket 4.1 18:13:40 10° S 18:19:12 87° WNW 18:24:48 10° NNE
Aureole 2 Rocket 3.5 18:17:08 10° SW 18:19:28 37° W 18:19:28 37° W
ATLAS 2AS CENTAUR R/B 4.2 18:13:59 10° W 18:21:00 33° NNW 18:25:31 19° NNE
Cosmos 2195 Rocket 4.4 18:14:55 10° S 18:21:13 73° E 18:27:32 10° NNE
Cosmos 158 Rocket 4.4 18:16:45 10° NNW 18:22:03 66° WSW 18:27:23 10° S
Meteor 2-8 Rocket 4.3 18:16:13 10° N 18:22:20 79° E 18:28:27 10° SSE
Meteor 2-15 4.4 18:16:55 10° N 18:23:00 58° ENE 18:24:42 44° SE
Cosmos 1680 Rocket 3.4 18:18:48 10° NNW 18:24:05 88° WSW 18:26:36 32° SSE
Cosmos 1898 Rocket 4.1 18:19:54 10° S 18:23:42 41° SSE 18:23:42 41° SSE
Cosmos 1627 Rocket 4.3 18:24:55 10° S 18:31:04 77° E 18:37:21 10° NNE
Cosmos 2098 Rocket 4.3 18:25:25 10° S 18:32:25 65° E 18:39:46 10° NNE
Cosmos 1602 Rocket 4.0 18:28:18 10° S 18:31:35 52° SSW 18:31:35 52° SSW
Cosmos 1818 3.6 18:28:22 10° SW 18:33:48 78° NW 18:34:52 58° NNE
YAOGAN 1 4.0 18:31:28 10° SSW 18:35:29 37° W 18:39:33 10° NNW
Cosmos 1428 Rocket 4.3 18:29:48 10° S 18:36:04 78° E 18:42:25 10° NNE
CSL-04 Rocket 4.0 18:33:51 10° S 18:39:12 66° WSW 18:44:41 10° NNW
Helios 1A Rocket 4.3 18:36:29 10° SSW 18:40:22 39° W 18:44:17 10° NNW
USA 234 3.2 18:40:19 57° ENE 18:41:18 64° NNE 18:47:46 10° NW
Iridium 4 Rocket 3.9 18:40:26 10° N 18:46:09 68° W 18:51:25 10° S
Cosmos 1092 Rocket 4.1 18:40:04 10° SSW 18:46:15 71° WNW 18:52:26 10° N
ATLAS 5 CENTAUR R/B 3.5 18:43:43 10° WNW 18:47:07 21° NNW 18:47:38 21° NNW
Cosmos 1812 Rocket 4.3 18:45:02 10° NNW 18:48:54 50° WNW 18:48:54 50° WNW
Cosmos 2344 4.2 18:44:56 10° NW 18:54:05 84° NE 18:59:35 39° SE
SJ 16-02 2.7 18:51:32 10° SW 18:55:37 36° WNW 18:56:00 36° NW
CZ-4C R/B 4.1 19:01:08 10° NW 19:05:46 23° N 19:06:30 22° N
COSMOS 2406 4.0 19:10:43 10° NNW 19:14:49 48° NW 19:14:49 48° NW
Lacrosse 5 3.8 19:20:10 10° WNW 19:24:03 23° SW 19:24:15 23° SW
CZ-2C R/B 3.7 19:27:19 43° WSW 19:27:19 43° WSW 19:31:27 10° SW
NOSS 3-1 (C) 4.5 19:25:41 10° NW 19:33:01 58° WSW 19:34:39 50° SSW
COSMOS 2455 4.4 19:31:23 10° W 19:36:28 27° NW 19:37:12 27° NNW
Cosmos 1833 Rocket 4.2 19:33:34 10° NNW 19:36:25 30° NW 19:36:25 30° NW
USA 281 4.4 19:43:33 33° NNW 19:43:33 33° NNW 19:46:54 10° NNW
Cosmos 2082 Rocket 4.1 19:35:46 10° NNW 19:37:48 23° NNW 19:37:48 23° NNW
USA 267 4.3 19:51:34 37° SW 19:51:34 37° SW 19:55:14 10° SW
USA 229 DEB 4.4 19:42:51 10° NW 19:49:18 56° WSW 19:49:18 56° WSW
USA 229 4.4 19:42:57 10° NW 19:49:20 56° W 19:49:20 56° W
ATLAS 2AS CENTAUR R/B 4.5 20:07:57 10° NW 20:12:56 25° NNW 20:12:56 25° NNW
